Volver al catálogo

STARLINK-1043

ActivoComunicacionesVLEO
NORAD 44748·PAYLOAD·🇺🇸 United States

Lanzado Nov 11, 2019 desde Cape Canaveral Space Force Station

Loading…

Próximos Pases (próximas 24 horas)

TLE

ActualizadoSource: CelesTrak SupGP

Época: Sep 14, 2026, 12:23 UTC

1 44748C 19074AM  26257.51645833  .00025223  00000+0  18003-3 0  2570
2 44748  53.0461 350.7312 0001184 353.0829 120.9850 15.73093804    19

Sigue STARLINK-1043 en tiempo real con AllMySat

Download on the App Store